Stations météo

réclame
Mon MeteoGroup
Amsterdam Airport, Pays-Bas (6240): Température de l'air & dewpoint: 19.06.2018 21:00:00 - 25.06.2018 21:00:00 (CEST)Amsterdam Airport, Pays-Bas (6240): Température de l'air 5cm: 19.06.2018 21:00:00 - 25.06.2018 21:00:00 (CEST)Amsterdam Airport, Pays-Bas (6240): Vitesse du vent & gusts: 19.06.2018 21:00:00 - 25.06.2018 21:00:00 (CEST)Amsterdam Airport, Pays-Bas (6240): Direction du vent: 19.06.2018 21:00:00 - 25.06.2018 21:00:00 (CEST)Amsterdam Airport, Pays-Bas (6240): reduced air pressure: 19.06.2018 21:00:00 - 25.06.2018 21:00:00 (CEST)Amsterdam Airport, Pays-Bas (6240): visibility: 19.06.2018 21:00:00 - 25.06.2018 21:00:00 (CEST)Amsterdam Airport, Pays-Bas (6240): Quantités de précipitations: 19.06.2018 21:00:00 - 25.06.2018 21:00:00 (CEST)
Date & Time tt [°C] td [°C] tt 5cm [°C] ff [km/h] ff [knt] fx [km/h] fx [knt] dd ppp [hPa] vv [km] rr [mm]
25.06.2018 21:00:00 16,9 11,9 16,0 16 9 25 14 NNW 1025,8 10 0,0
25.06.2018 20:00:00 17,8 12,1 19,0 18 10 29 16 NNW 1025,8 10 0,0
25.06.2018 19:00:00 19,0 12,3 21,8 18 10 29 16 NNW 1025,6 10 0,0
25.06.2018 18:00:00 19,5 12,8 23,2 21 11 32 18 NW 1025,6 10 0,0
25.06.2018 17:00:00 20,2 13,1 25,4 16 9 29 16 NNW 1025,6 10 0,0
25.06.2018 16:00:00 19,7 13,0 25,8 21 11 29 16 NW 1025,6 10 0,0
25.06.2018 15:00:00 20,4 12,9 26,8 13 7 29 16 NNW 1025,8 10 0,0
25.06.2018 14:00:00 19,2 12,9 25,4 16 9 29 16 NNW 1025,7 10 0,0
25.06.2018 13:00:00 18,4 13,6 23,8 15 8 32 18 NW 1025,9 10 0,0
25.06.2018 12:00:00 16,8 13,8 20,8 11 6 25 14 WNW 1026,1 10 0,0
25.06.2018 11:00:00 15,6 13,1 18,1 13 7 29 16 NW 1026,0 10 0,0
25.06.2018 10:00:00 15,4 12,8 17,4 15 8 25 14 - 1025,5 10 0,0
25.06.2018 09:00:00 15,1 12,8 16,1 15 8 22 12 NW 1025,3 10 0,0
25.06.2018 08:00:00 14,8 12,6 15,2 15 8 25 14 NNW 1025,1 10 0,0
25.06.2018 07:00:00 14,5 12,6 14,5 11 6 22 12 NNW 1024,7 10 0,0
25.06.2018 06:00:00 13,9 12,1 13,6 13 7 22 12 NNW 1024,4 10 0,0
25.06.2018 05:00:00 14,0 12,3 13,7 11 6 18 10 NNW 1024,1 10 0,0
25.06.2018 04:00:00 14,1 12,1 13,7 13 7 22 12 NNW 1024,1 10 0,0
25.06.2018 03:00:00 14,0 11,9 13,7 11 6 22 12 N 1024,2 10 0,0
25.06.2018 02:00:00 14,1 11,8 13,7 11 6 25 14 NNW 1024,5 10 0,0
25.06.2018 01:00:00 14,0 12,0 13,8 15 8 22 12 NNW 1024,4 10 0,0
25.06.2018 00:00:00 14,0 11,9 13,9 15 8 22 12 NNW 1024,4 10 0,0
24.06.2018 23:00:00 14,4 12,0 14,2 16 9 29 16 N 1024,3 10 0,0
24.06.2018 22:00:00 14,6 12,1 14,4 13 7 29 16 NNW 1024,2 10 0,0
24.06.2018 21:00:00 14,6 12,1 14,8 18 10 32 18 NNW 1023,9 10 0,0
24.06.2018 20:00:00 15,3 11,7 15,7 18 10 32 18 NNW 1024,0 10 0,0
24.06.2018 19:00:00 15,8 11,1 16,4 22 12 32 18 NNW 1024,1 10 0,0
24.06.2018 18:00:00 16,4 10,2 18,4 24 13 36 19 NW 1024,1 10 0,0
24.06.2018 17:00:00 17,0 10,4 18,6 22 12 40 21 NW 1024,5 10 0,0
24.06.2018 16:00:00 17,3 10,4 19,6 22 12 36 19 WNW 1024,5 10 0,0
24.06.2018 15:00:00 17,6 10,5 21,2 24 13 32 18 NNW 1024,4 10 0,0
24.06.2018 14:00:00 16,6 11,0 18,8 21 11 32 18 NW 1024,7 10 0,0
24.06.2018 13:00:00 17,1 10,6 21,4 15 8 29 16 NW 1024,6 10 0,0
24.06.2018 12:00:00 16,5 9,8 20,7 15 8 29 16 NW 1024,8 10 0,0
24.06.2018 11:00:00 15,8 9,6 18,7 16 9 25 14 N 1024,7 10 0,0
24.06.2018 10:00:00 15,2 9,3 17,1 13 7 25 14 N 1024,7 10 0,0
24.06.2018 09:00:00 14,3 9,1 14,8 15 8 22 12 N 1024,5 10 0,0
24.06.2018 08:00:00 13,9 9,5 13,1 9 5 18 10 N 1024,3 10 0,0
24.06.2018 07:00:00 12,5 9,7 10,6 5 3 11 6 N 1024,1 10 0,0
24.06.2018 06:00:00 10,4 8,9 7,1 8 4 11 6 N 1023,7 10 0,0
24.06.2018 05:00:00 11,9 10,1 9,8 9 5 14 8 N 1023,6 10 0,0
24.06.2018 04:00:00 9,9 9,2 7,3 8 4 11 6 NNW 1023,6 10 0,0
24.06.2018 03:00:00 11,8 10,8 7,8 4 2 7 4 WNW 1023,9 10 0,0
24.06.2018 02:00:00 11,8 10,6 9,2 8 4 11 6 N 1024,3 10 0,0
24.06.2018 01:00:00 12,2 10,8 11,0 11 6 14 8 NW 1024,7 10 0,0
24.06.2018 00:00:00 13,0 11,1 11,5 8 4 18 10 NNW 1024,7 10 0,0
23.06.2018 23:00:00 13,8 11,5 13,2 11 6 14 8 WNW 1024,9 10 0,0
23.06.2018 22:00:00 14,1 11,5 13,8 11 6 18 10 WNW 1024,6 10 0,0
23.06.2018 21:00:00 14,8 11,4 14,8 13 7 18 10 WNW 1024,6 10 0,0
23.06.2018 20:00:00 16,0 11,8 17,0 13 7 25 14 WNW 1024,8 10 0,0
23.06.2018 19:00:00 16,7 10,1 18,6 16 9 25 14 W 1025,2 10 0,0
23.06.2018 18:00:00 17,7 9,5 21,3 16 9 29 16 W 1025,7 10 0,0
23.06.2018 17:00:00 18,0 9,2 21,2 18 10 29 16 W 1025,9 10 0,0
23.06.2018 16:00:00 18,3 7,8 22,1 16 9 29 16 WNW 1026,4 10 0,0
23.06.2018 15:00:00 18,8 8,3 22,7 13 7 25 14 W 1026,9 10 0,0
23.06.2018 14:00:00 17,0 8,1 21,0 15 8 25 14 WNW 1027,6 10 0,0
23.06.2018 13:00:00 16,7 9,7 20,9 13 7 22 12 WNW 1027,7 10 0,0
23.06.2018 12:00:00 15,9 10,5 18,3 13 7 22 12 WNW 1027,8 10 0,0
23.06.2018 11:00:00 14,8 10,3 16,4 16 9 22 12 WNW 1027,9 10 0,0
23.06.2018 10:00:00 14,5 10,3 15,2 15 8 25 14 NW 1027,8 10 0,0
23.06.2018 09:00:00 14,2 10,0 14,8 21 11 25 14 NW 1028,0 10 0,0
23.06.2018 08:00:00 14,0 9,9 13,9 16 9 22 12 WNW 1027,8 10 0,0
23.06.2018 07:00:00 12,3 9,8 10,2 8 4 14 8 NW 1027,7 10 0,0
23.06.2018 06:00:00 11,2 8,8 9,9 13 7 22 12 NW 1027,7 10 0,0
23.06.2018 05:00:00 12,5 9,2 11,5 16 9 25 14 WNW 1027,5 10 0,0
23.06.2018 04:00:00 12,1 8,8 10,6 15 8 22 12 WNW 1027,6 10 0,0
23.06.2018 03:00:00 11,3 8,3 9,3 11 6 18 10 WNW 1027,9 10 0,0
23.06.2018 02:00:00 9,1 7,1 6,1 11 6 14 8 NW 1028,1 10 0,0
23.06.2018 01:00:00 9,3 7,0 5,7 8 4 14 8 W 1028,4 10 0,0
23.06.2018 00:00:00 8,6 5,5 4,7 8 4 18 10 WNW 1028,6 10 0,0
22.06.2018 23:00:00 10,3 6,2 8,5 13 7 25 14 NW 1028,6 10 0,0
22.06.2018 22:00:00 11,9 6,9 11,2 18 10 29 16 NW 1028,4 10 0,0
22.06.2018 21:00:00 12,9 7,4 12,6 22 12 36 19 NNW 1028,3 10 0,0
22.06.2018 20:00:00 13,3 7,9 13,6 22 12 36 19 NW 1028,2 10 0,0
22.06.2018 19:00:00 13,8 8,2 14,4 28 15 43 23 NW 1028,1 10 0,0
22.06.2018 18:00:00 13,6 8,2 14,4 28 15 43 23 NNW 1028,0 10 0,0
22.06.2018 17:00:00 14,1 8,4 15,6 29 16 43 23 NW 1027,7 10 0,0
22.06.2018 16:00:00 14,0 9,2 15,7 29 16 40 21 NW 1027,5 10 0,0
22.06.2018 15:00:00 14,2 9,4 15,1 28 15 50 27 NW 1027,3 9 0,0
22.06.2018 14:00:00 15,1 8,9 16,8 34 18 50 27 NW 1027,1 10 0,0
22.06.2018 13:00:00 14,6 10,6 14,9 24 13 43 23 NW 1026,7 10 0,0
22.06.2018 12:00:00 12,7 9,4 14,9 28 15 47 25 NW 1026,6 9 0,0
22.06.2018 11:00:00 14,1 8,0 15,4 37 20 54 29 NW 1026,0 10 0,0
22.06.2018 10:00:00 13,7 7,9 14,8 35 19 50 27 NW 1025,6 10 0,0
22.06.2018 09:00:00 12,9 7,7 13,3 34 18 54 29 NW 1025,1 10 0,0
22.06.2018 08:00:00 12,6 6,0 12,1 35 19 58 31 NW 1024,7 10 0,0
22.06.2018 07:00:00 13,0 6,5 12,1 39 21 61 33 NW 1024,1 10 0,0
22.06.2018 06:00:00 12,7 5,8 11,7 34 18 58 31 NW 1024,1 10 0,0
22.06.2018 05:00:00 13,0 6,2 12,0 37 20 54 29 NW 1024,0 10 0,0
22.06.2018 04:00:00 12,7 6,3 10,9 34 18 54 29 NW 1023,9 10 0,0
22.06.2018 03:00:00 12,7 6,4 11,6 35 19 54 29 NW 1024,2 10 0,0
22.06.2018 02:00:00 12,9 5,9 11,7 31 17 54 29 NW 1024,4 10 0,0
22.06.2018 01:00:00 13,1 5,6 12,2 35 19 54 29 NW 1024,6 10 0,0
22.06.2018 00:00:00 13,1 5,3 12,0 34 18 54 29 NW 1024,8 10 0,0
21.06.2018 23:00:00 12,9 5,3 10,8 28 15 47 25 WNW 1024,9 10 0,0
21.06.2018 22:00:00 12,1 6,3 10,8 28 15 43 23 WNW 1025,0 10 0,0
21.06.2018 21:00:00 12,1 4,5 11,1 31 17 47 25 WNW 1025,0 10 0,0
21.06.2018 20:00:00 13,6 6,4 13,6 37 20 61 33 NW 1024,7 10 0,0
21.06.2018 19:00:00 13,8 7,7 14,3 37 20 58 31 NW 1024,6 10 0,0
21.06.2018 18:00:00 13,5 8,3 16,0 44 24 61 33 NW 1023,9 10 0,0
21.06.2018 17:00:00 14,4 6,9 14,9 39 21 58 31 NW 1023,5 10 0,0
21.06.2018 16:00:00 15,9 7,4 16,8 39 21 54 29 NW 1022,8 10 0,0
21.06.2018 15:00:00 14,8 8,4 16,6 34 18 54 29 WNW 1022,3 10 0,0
21.06.2018 14:00:00 14,5 6,9 16,3 39 21 58 31 NW 1021,4 10 0,0
21.06.2018 13:00:00 13,6 6,3 16,1 37 20 54 29 WNW 1020,9 10 0,0
21.06.2018 12:00:00 15,5 6,2 18,6 41 22 58 31 WNW 1020,2 10 0,0
21.06.2018 11:00:00 14,1 6,7 15,7 41 22 58 31 WNW 1019,4 10 0,0
21.06.2018 10:00:00 14,7 7,2 16,3 39 21 58 31 WNW 1018,6 10 0,0
21.06.2018 09:00:00 14,3 8,4 13,8 35 19 50 27 NW 1017,6 10 0,0
21.06.2018 08:00:00 13,8 9,7 13,5 28 15 43 23 WNW 1016,9 10 0,0
21.06.2018 07:00:00 14,0 10,9 13,6 28 15 40 21 NW 1016,4 10 0,0
21.06.2018 06:00:00 14,2 12,1 13,8 21 11 36 19 NW 1015,9 10 0,0
21.06.2018 05:00:00 14,9 13,8 14,6 15 8 22 12 WNW 1015,5 10 0,0
21.06.2018 04:00:00 15,7 14,8 15,5 13 7 18 10 W 1015,7 10 0,0
21.06.2018 03:00:00 15,7 14,6 15,6 8 4 18 10 W 1015,7 10 0,0
21.06.2018 02:00:00 15,9 14,5 16,0 15 8 25 14 W 1015,9 10 0,0
21.06.2018 01:00:00 16,6 14,9 16,6 21 11 29 16 W 1016,5 10 0,0
21.06.2018 00:00:00 17,7 15,4 17,2 13 7 29 16 WNW 1016,6 10 0,0
20.06.2018 23:00:00 18,1 15,2 16,7 21 11 32 18 WSW 1016,8 10 0,0
20.06.2018 22:00:00 19,4 15,1 17,5 21 11 29 16 WSW 1017,0 10 0,0
20.06.2018 21:00:00 20,3 14,9 18,9 22 12 36 19 SW 1017,1 10 0,0
20.06.2018 20:00:00 20,7 14,7 20,5 26 14 40 21 SW 1017,7 10 0,0
20.06.2018 19:00:00 21,6 14,8 22,5 29 16 47 25 WSW 1018,3 10 0,0
20.06.2018 18:00:00 22,1 14,4 23,8 35 19 47 25 WSW 1018,6 10 0,0
20.06.2018 17:00:00 23,2 15,0 25,9 24 13 36 19 WSW 1018,9 10 0,0
20.06.2018 16:00:00 23,2 15,8 26,7 24 13 36 19 WSW 1019,2 10 0,0
20.06.2018 15:00:00 21,9 16,2 24,9 24 13 36 19 SSW 1019,7 10 0,0
20.06.2018 14:00:00 19,6 16,1 21,8 21 11 29 16 SW 1020,3 10 0,0
20.06.2018 13:00:00 18,8 15,8 19,5 22 12 32 18 SW 1020,9 10 0,0
20.06.2018 12:00:00 18,3 15,6 19,3 21 11 36 19 SW 1021,2 10 0,0
20.06.2018 11:00:00 17,3 15,5 18,4 18 10 29 16 SSW 1021,3 9 0,0
20.06.2018 10:00:00 16,7 15,3 17,6 18 10 29 16 SSW 1021,5 7 0,0
20.06.2018 09:00:00 16,6 15,3 17,0 16 9 25 14 SW 1021,4 8 0,0
20.06.2018 08:00:00 16,1 15,0 16,2 21 11 29 16 SW 1021,3 8 0,0
20.06.2018 07:00:00 15,9 15,0 15,5 18 10 25 14 SSW 1021,5 10 0,0
20.06.2018 06:00:00 15,1 14,6 12,7 11 6 18 10 SSW 1021,6 10 0,0
20.06.2018 05:00:00 15,2 14,5 14,0 13 7 18 10 SSW 1021,7 9 0,0
20.06.2018 04:00:00 15,0 14,2 13,0 11 6 14 8 S 1021,9 10 0,0
20.06.2018 03:00:00 14,8 14,0 12,8 9 5 14 8 SSW 1022,1 10 0,0
20.06.2018 02:00:00 16,4 14,8 14,4 13 7 22 12 SW 1022,7 10 0,0
20.06.2018 01:00:00 17,2 15,0 15,8 13 7 18 10 SSW 1023,0 10 0,0
20.06.2018 00:00:00 16,5 14,5 14,6 13 7 22 12 SW 1023,3 10 0,0
19.06.2018 23:00:00 17,3 14,5 15,4 13 7 22 12 WSW 1023,6 10 0,0
19.06.2018 22:00:00 18,3 14,8 17,0 13 7 18 10 W 1023,4 10 0,0
19.06.2018 21:00:00 19,8 14,9 19,5 15 8 22 12 W 1023,0 10 0,0

tt = Température de l'air
td = dewpoint
tt 5cm = Température de l'air 5cm
ff = Vitesse du vent
fx = gusts
dd = Direction du vent
ppp = reduced air pressure
vv = visibility
rr = Quantités de précipitations

stations d'obs. à proximité